This demonstration page uses our WeatherBlox Daily Observations layout. Learn more.

Left ArrowRight Arrow

38.80484, -77.04692

Hourly Observations for November 5, 2021

Temp ( °F °C ) Dew Point ( °F °C ) Humidity (%) Winds ( mph kmh ) Pressure ( in mb ) Visibility ( mi km ) Precip ( " mm )
12:52 am 00:52 Mostly Cloudy 41 5 30 -1.1 65 65 NNW 6 9 30.28 1026 10 16 0.00 0.00
1:52 am 01:52 Partly Cloudy 38 3.3 29 -1.7 70 70 NNW 5 7 30.28 1025 10 16 0.00 0.00
2:52 am 02:52 Partly Cloudy 38 3.3 28 -2.2 68 68 NNW 6 9 30.29 1026 10 16 0.00 0.00
3:52 am 03:52 Mostly Clear 38 3.3 28 -2.2 68 68 NNW 5 7 30.29 1026 10 16 0.00 0.00
4:52 am 04:52 Mostly Clear 37 2.8 28 -2.2 70 70 NNW 6 9 30.30 1026 10 16 0.00 0.00
5:52 am 05:52 Mostly Clear 36 2.2 27 -2.8 70 70 NNW 6 9 30.33 1027 10 16 0.00 0.00
6:52 am 06:52 Mostly Clear 36 2.2 28 -2.2 73 73 NNW 6 9 30.35 1028 10 16 0.00 0.00
7:52 am 07:52 Sunny 36 2.2 28 -2.2 73 73 NNW 8 13 30.37 1028 10 16 0.00 0.00
8:52 am 08:52 Mostly Sunny 41 5 29 -1.7 62 62 N 6 9 30.39 1029 10 16 0.00 0.00
9:52 am 09:52 Mostly Sunny 46 7.8 31 -0.6 56 56 NNW 7 11 30.41 1030 10 16 0.00 0.00
10:52 am 10:52 Mostly Sunny 49 9.4 31 -0.6 50 50 NW 6 9 30.42 1030 10 16 0.00 0.00
11:52 am 11:52 Mostly Sunny 53 11.7 27 -2.8 37 37 NNE 8 13 30.41 1030 10 16 0.00 0.00
12:52 pm 12:52 Partly Cloudy 55 12.8 27 -2.8 34 34 NNE 13 20 30.39 1029 10 16 0.00 0.00
1:52 pm 13:52 Mostly Sunny 55 12.8 25 -3.9 31 31 NE 8 13 30.38 1029 10 16 0.00 0.00
2:52 pm 14:52 Partly Cloudy 55 12.8 25 -3.9 31 31 NE 9 15 30.36 1028 10 16 0.00 0.00
3:52 pm 15:52 Partly Cloudy 55 12.8 26 -3.3 33 33 NNE 8 13 30.37 1029 10 16 0.00 0.00
4:52 pm 16:52 Mostly Cloudy 54 12.2 24 -4.4 31 31 N 8 13 30.38 1029 10 16 0.00 0.00
5:52 pm 17:52 Cloudy 50 10 27 -2.8 41 41 NNE 6 9 30.39 1029 10 16 0.00 0.00
6:52 pm 18:52 Cloudy 50 10 27 -2.8 41 41 NNE 8 13 30.39 1029 10 16 0.00 0.00
7:52 pm 19:52 Mostly Cloudy 48 8.9 29 -1.7 48 48 NE 5 7 30.40 1029 10 16 0.00 0.00
8:52 pm 20:52 Cloudy 48 8.9 33 0.6 56 56 Calm 30.41 1030 10 16 0.00 0.00
9:52 pm 21:52 Cloudy 47 8.3 32 0 56 56 Calm 30.42 1030 10 16 0.00 0.00
10:52 pm 22:52 Mostly Cloudy 42 5.6 33 0.6 71 71 N 3 6 30.42 1030 10 16 0.00 0.00
11:52 pm 23:52 Cloudy 41 5 32 0 70 70 N 6 9 30.40 1030 10 16 0.00 0.00

Powered by AerisWeather